Location: Logan
(31.9860°N, 86.4905°W)
Time: 05:54:03
(UTC+00:00)

Daily predictions for brighter satellites

Satellite Brightness Start Highest point End
(mag) Time Altitude Azimuth Time Altitude Azimuth Time Altitude Azimuth
ARGOS 3.4 01:07:49 10° SSE 01:13:03 55° ENE 01:18:19 10° N
Okean 2 Rocket 4.4 01:10:52 10° NNE 01:14:23 23° ENE 01:17:51 10° SE
Cosmos 1437 Rocket 4.0 01:11:48 10° SE 01:14:41 21° E 01:17:35 10° NE
SWIFT 4.1 01:13:06 10° SW 01:15:54 17° S 01:18:42 10° SE
Sich 1 Rocket 4.1 01:11:39 10° N 01:16:01 42° E 01:20:18 10° SSE
ASTEX 1 3.5 01:12:20 10° SSE 01:17:08 61° E 01:21:59 10° N
STARLINK-60 3.3 01:14:47 10° SW 01:17:54 67° NW 01:21:03 10° NE
Cosmos 304 Rocket 4.1 01:13:39 10° S 01:18:09 43° ESE 01:22:41 10° NNE
Cosmos 909 Rocket 4.3 01:11:09 10° NNW 01:18:17 79° WSW 01:24:32 10° SSE
CZ-2C R/B 3.2 01:13:33 10° NNE 01:18:49 41° E 01:24:01 10° SSE
Cosmos 1743 3.7 01:15:43 10° NNW 01:19:23 49° W 01:23:04 10° S
ASTRO E2 2.6 01:15:30 10° W 01:19:27 81° S 01:23:24 10° E
Cosmos 1943 Rocket 3.4 01:16:08 10° SSE 01:20:09 21° E 01:24:12 10° NE
Resurs 01 Rocket 3.6 01:18:21 10° E 01:20:33 14° ENE 01:22:44 10° NE
Cosmos 676 Rocket 4.1 01:15:52 10° NNW 01:21:09 71° ENE 01:26:26 10° SSE
STARLINK-1124 4.4 01:19:31 10° NNW 01:23:28 42° NE 01:27:23 10° ESE
Okean 3 3.5 01:21:26 10° S 01:25:42 68° E 01:29:58 10° NNE
H-2A R/B 2.2 01:22:35 10° S 01:27:38 82° WSW 01:32:51 10° NNW
STARLINK-1122 4.2 01:24:27 10° NNW 01:28:27 47° NE 01:32:15 11° ESE
NOSS 2-2 (D) 3.0 01:24:53 10° SSW 01:28:32 84° ESE 01:32:09 10° NNE
Meteor 1-4 Rocket 4.4 01:28:38 10° SW 01:31:45 32° W 01:34:54 10° NNW
STARLINK-1126 4.0 01:29:04 10° NNW 01:33:07 52° NE 01:36:43 13° ESE
Orbus 7S 3.6 01:31:27 10° WSW 01:33:56 37° S 01:38:09 10° E
SL-4 R/B 1.7 01:34:17 10° NW 01:37:00 48° WSW 01:39:29 10° S
Cosmos 1833 Rocket 2.7 01:31:51 10° NNW 01:37:30 89° ENE 01:43:06 10° SSE
STARLINK-1444 3.4 01:36:10 10° WSW 01:38:06 38° NW 01:40:02 10° NNE
BREEZE-M DEB 2.2 01:35:53 10° WSW 01:38:11 59° NW 01:40:29 10° NE
STARLINK-1082 3.9 01:34:21 10° NW 01:38:26 59° NE 01:41:50 14° ESE
STARLINK-1452 3.5 01:36:47 10° WSW 01:38:43 37° NW 01:40:39 10° NNE
FREGAT/IRIS 2.5 01:36:47 10° S 01:39:25 70° W 01:42:04 10° NNW
STARLINK-1450 3.7 01:38:06 10° WSW 01:39:58 34° NW 01:41:49 10° NNE
STARLINK-1436 (VISORSAT) 3.7 01:38:09 10° WSW 01:40:02 34° NW 01:41:54 10° NNE
STARLINK-1392 3.7 01:38:14 10° WSW 01:40:06 33° NW 01:41:56 10° NNE
STARLINK-1398 3.7 01:38:12 10° WSW 01:40:06 34° NW 01:41:59 10° NNE
STARLINK-1414 3.7 01:38:13 10° WSW 01:40:06 34° NW 01:41:58 10° NNE
STARLINK-1399 3.7 01:38:15 10° WSW 01:40:06 33° NW 01:41:57 10° NNE
STARLINK-1415 3.7 01:38:15 10° WSW 01:40:07 33° NW 01:41:58 10° NNE
STARLINK-1416 3.7 01:38:14 10° WSW 01:40:07 34° NW 01:41:59 10° NNE
STARLINK-1394 3.7 01:38:16 10° WSW 01:40:07 33° NW 01:41:58 10° NNE
STARLINK-1395 3.7 01:38:16 10° WSW 01:40:07 33° NW 01:41:58 10° NNE
STARLINK-1393 3.7 01:38:16 10° WSW 01:40:08 33° NW 01:41:58 10° NNE
STARLINK-1408 3.7 01:38:15 10° WSW 01:40:08 34° NW 01:42:01 10° NNE
STARLINK-1396 3.7 01:38:17 10° WSW 01:40:08 33° NW 01:41:58 10° NNE
STARLINK-1397 3.7 01:38:17 10° WSW 01:40:08 33° NW 01:41:58 10° NNE
STARLINK-1401 3.7 01:38:17 10° WSW 01:40:09 33° NW 01:41:59 10° NNE
STARLINK-1419 3.7 01:38:16 10° WSW 01:40:09 34° NW 01:42:01 10° NNE
STARLINK-1404 3.7 01:38:18 10° WSW 01:40:09 33° NW 01:42:00 10° NNE
STARLINK-1453 3.7 01:38:18 10° WSW 01:40:10 33° NW 01:42:00 10° NNE
STARLINK-1402 3.7 01:38:19 10° WSW 01:40:11 33° NW 01:42:01 10° NNE
STARLINK-1417 3.7 01:38:19 10° WSW 01:40:11 33° NW 01:42:01 10° NNE
STARLINK-1420 3.7 01:38:18 10° WSW 01:40:11 34° NW 01:42:04 10° NNE
STARLINK-1413 3.7 01:38:20 10° WSW 01:40:12 33° NW 01:42:02 10° NNE
STARLINK-1406 3.7 01:38:21 10° WSW 01:40:12 33° NW 01:42:02 10° NNE
STARLINK-1422 3.7 01:38:19 10° WSW 01:40:13 34° NW 01:42:05 10° NNE
STARLINK-1460 3.7 01:38:20 10° WSW 01:40:13 34° NW 01:42:05 10° NNE
STARLINK-1440 3.7 01:38:22 10° WSW 01:40:14 33° NW 01:42:04 10° NNE
STARLINK-1458 3.7 01:38:21 10° WSW 01:40:14 34° NW 01:42:06 10° NNE
Cosmos 1674 Rocket 4.2 01:36:17 10° SSE 01:40:14 34° E 01:44:14 10° NNE
STARLINK-1445 3.7 01:38:23 10° WSW 01:40:14 33° NW 01:42:05 10° NNE
STARLINK-1443 3.7 01:38:24 10° WSW 01:40:15 33° NW 01:42:06 10° NNE
STARLINK-1454 3.7 01:38:24 10° WSW 01:40:16 33° NW 01:42:06 10° NNE
STARLINK-1457 3.7 01:38:25 10° WSW 01:40:17 33° NW 01:42:07 10° NNE
STARLINK-1456 3.7 01:38:25 10° WSW 01:40:17 33° NW 01:42:07 10° NNE
STARLINK-1451 3.7 01:38:26 10° WSW 01:40:18 33° NW 01:42:07 10° NNE
STARLINK-1437 3.7 01:38:24 10° WSW 01:40:18 34° NW 01:42:09 10° NNE
STARLINK-1446 3.7 01:38:24 10° WSW 01:40:18 34° NW 01:42:10 10° NNE
STARLINK-1442 3.7 01:38:27 10° WSW 01:40:19 33° NW 01:42:09 10° NNE
STARLINK-1447 3.7 01:38:27 10° WSW 01:40:20 34° NW 01:42:13 10° NNE
STARLINK-1423 3.7 01:38:27 10° WSW 01:40:21 34° NW 01:42:13 10° NNE
STARLINK-1455 3.7 01:38:27 10° WSW 01:40:21 34° NW 01:42:13 10° NNE
STARLINK-1405 3.7 01:38:29 10° WSW 01:40:21 33° NW 01:42:11 10° NNE
STARLINK-1421 3.7 01:38:29 10° WSW 01:40:21 33° NW 01:42:11 10° NNE
STARLINK-1441 3.7 01:38:28 10° WSW 01:40:21 34° NW 01:42:14 10° NNE
STARLINK-1400 3.7 01:38:30 10° WSW 01:40:21 33° NW 01:42:11 10° NNE
STARLINK-1410 3.7 01:38:30 10° WSW 01:40:22 33° NW 01:42:11 10° NNE
STARLINK-1407 3.7 01:38:30 10° WSW 01:40:22 33° NW 01:42:13 10° NNE
STARLINK-1439 3.7 01:38:31 10° WSW 01:40:22 33° NW 01:42:13 10° NNE
STARLINK-1448 3.7 01:38:29 10° WSW 01:40:23 34° NW 01:42:15 10° NNE
STARLINK-1449 3.7 01:38:29 10° WSW 01:40:23 34° NW 01:42:16 10° NNE
STARLINK-1409 3.7 01:38:31 10° WSW 01:40:23 33° NW 01:42:13 10° NNE
STARLINK-1351 3.7 01:38:32 10° WSW 01:40:24 33° NW 01:42:14 10° NNE
STARLINK-1370 3.7 01:38:32 10° WSW 01:40:24 33° NW 01:42:14 10° NNE
STARLINK-1418 3.7 01:38:33 10° WSW 01:40:24 33° NW 01:42:14 10° NNE
STARLINK-1434 3.7 01:38:33 10° WSW 01:40:24 33° NW 01:42:14 10° NNE
STARLINK-1403 3.7 01:38:34 10° WSW 01:40:25 33° NW 01:42:16 10° NNE
STARLINK-1433 3.7 01:38:35 10° WSW 01:40:26 33° NW 01:42:16 10° NNE
STARLINK-1411 3.7 01:38:36 10° WSW 01:40:28 33° NW 01:42:18 10° NNE
STARLINK-1438 3.7 01:38:36 10° WSW 01:40:28 33° NW 01:42:18 10° NNE
STARLINK-1412 3.7 01:38:37 10° WSW 01:40:31 34° NW 01:42:24 10° NNE
Iridium 51 4.3 01:37:16 10° S 01:41:04 77° W 01:44:38 10° N
STARLINK-1100 3.7 01:39:17 10° NW 01:43:23 66° NE 01:46:35 16° SE
Cosmos 2297 3.8 01:38:48 10° SSW 01:44:28 88° WNW 01:50:12 10° NNE
Meteor 2-4 Rocket 4.2 01:42:11 10° SSW 01:47:27 61° W 01:52:45 10° N
NOSS 3-4 (A) 4.5 01:43:48 10° SSE 01:48:03 21° ESE 01:52:21 10° ENE
NOSS 3-4 (C) 4.5 01:43:56 10° SSE 01:48:09 20° ESE 01:52:25 10° ENE
STARLINK-1083 3.6 01:44:14 10° NW 01:48:21 74° NE 01:51:21 18° SE
COSMOS 2406 4.3 01:43:04 10° NW 01:48:28 43° WSW 01:53:49 10° S
STARLINK-29 3.1 01:46:47 10° SW 01:50:00 75° NW 01:53:13 10° NE
Meteor 1-12 Rocket 4.3 01:44:30 10° N 01:50:09 62° E 01:55:41 11° SSE
Cosmos 2279 Rocket 4.2 01:46:08 10° N 01:52:12 53° E 01:57:37 13° SSE
Cosmos 2369 Rocket 3.0 01:47:32 10° SSE 01:52:21 29° ESE 01:57:10 10° NE
STARLINK-1125 3.6 01:49:12 10° NW 01:53:20 83° NE 01:56:09 20° SE
Cosmos 2082 Rocket 2.2 01:47:52 10° NNW 01:53:35 72° ENE 01:58:17 15° SSE
Cosmos 1975 4.2 01:50:29 10° NNW 01:54:13 38° W 01:57:54 10° SSW
USA 186 3.3 01:53:44 10° SSW 01:56:01 27° W 01:58:28 10° NW
ISS -3.5 01:52:47 10° NW 01:56:06 60° SW 01:58:06 21° SSE
STARLINK-1109 3.6 01:54:09 10° NW 01:58:18 88° SW 02:00:55 22° SE
STARLINK-1091 3.6 01:59:08 10° NW 02:03:17 78° SW 02:05:42 24° SE
Cosmos 1378 4.3 02:02:56 23° ESE 02:03:37 24° E 02:06:40 10° NE
USA 267 4.0 01:58:05 10° SSE 02:04:13 47° SW 02:10:30 10° NW
SJ-6B 3.6 02:00:47 10° S 02:04:22 47° W 02:07:58 10° NNW
H-2A ROCKET BODY 3.3 02:03:07 10° SSW 02:07:08 35° SE 02:20:32 10° E
STARLINK-1072 3.7 02:04:10 10° NW 02:08:16 69° SW 02:10:31 26° SSE
Sakura Rocket 4.1 02:03:08 10° W 02:08:34 59° S 02:13:42 20° ESE
Lacrosse 5 2.4 02:05:38 10° NW 02:10:32 52° WSW 02:13:58 19° SSE
STARLINK-1096 3.9 02:09:08 10° NW 02:13:13 61° SW 02:15:16 27° SSE
ATLAS 2AS CENTAUR R/B 3.3 02:07:54 10° S 02:15:14 46° ESE 02:22:45 10° NE
Meteor 1-23 Rocket 4.1 02:11:17 10° S 02:16:58 78° E 02:22:36 10° N
STARLINK-1079 4.0 02:14:10 10° NW 02:18:12 53° SW 02:20:05 28° SSE
Cosmos 1066 Rocket 4.0 02:13:51 10° S 02:19:14 78° E 02:24:35 10° N
MetOp-A 4.5 02:16:08 12° S 02:21:01 64° WSW 02:26:21 10° NNW
STARLINK-1116 4.2 02:19:11 10° NW 02:23:09 47° SW 02:24:52 29° S
Cosmos 1092 Rocket 4.5 02:22:30 26° SE 02:25:10 39° E 02:30:49 10° NNE
SAR-Lupe-2 4.1 02:23:01 10° NNE 02:26:18 38° E 02:26:18 38° E
COSMOS 2455 3.8 02:30:25 25° ESE 02:30:25 25° ESE 02:34:58 10° NE
H-2A R/B 3.9 02:28:17 10° SW 02:31:05 17° S 02:31:36 17° S
Milstar 3 Cent rocket 3.6 02:25:29 10° SW 02:32:18 54° SSE 02:46:27 10° E
Spot 2 Rocket 3.9 02:35:31 35° ESE 02:37:00 46° ENE 02:41:48 10° N
Cosmos 1741 Rocket 4.4 02:34:08 10° NNW 02:39:15 58° WSW 02:42:12 25° S
GPS 2-04 Rocket1 2.4 02:36:44 10° WNW 02:40:07 63° SSW 02:40:07 63° SSW
STARLINK-1111 4.4 02:36:31 10° NNW 02:40:26 40° NE 02:41:19 35° ENE
Okean 1 Rocket 3.0 02:36:09 10° N 02:40:34 69° E 02:41:35 49° SE
FALCON 9 DEB 4.4 02:38:05 10° WSW 02:41:20 41° NW 02:44:36 10° NNE
STARLINK-1073 4.2 02:41:26 10° NNW 02:45:25 45° NE 02:46:05 41° ENE
SPOT 5 4.3 02:46:23 25° E 02:47:08 26° ENE 02:51:28 10° NNE
IGS 5A 3.7 02:48:39 48° E 02:48:49 48° ENE 02:52:50 10° N
ASC 2 Rocket 4.5 02:44:08 10° SW 02:48:27 33° S 02:48:27 33° S
STARLINK-1121 4.0 02:46:21 10° NNW 02:50:23 50° NE 02:50:51 47° ENE
SL-27 R/B 4.4 02:48:56 10° NNE 02:50:47 19° NE 02:50:47 19° NE
Cosmos 2263 4.0 02:48:44 27° S 02:51:53 74° ESE 02:57:29 10° NNE
ATLAS CENTAUR R/B 1.4 02:52:16 61° SSE 02:52:49 69° ESE 02:57:05 10° NNE
Okean 2 3.2 02:54:11 71° ESE 02:54:20 72° E 02:58:28 10° N
STARLINK-1362 4.3 02:56:03 39° NE 02:56:03 39° NE 02:58:40 10° NE
Terra 3.5 02:55:01 19° ENE 02:55:01 19° ENE 02:58:17 10° NNE
STARLINK-1106 3.8 02:51:18 10° NW 02:55:23 56° NE 02:55:39 55° ENE
Resurs 01 Rocket 2.6 02:54:43 28° SSW 02:56:36 43° W 03:00:51 10° NNW
STARLINK-1373 4.3 03:00:25 40° NE 03:00:25 40° NE 03:03:01 10° NE
Centaur D-1A AC-32 4.3 02:51:38 10° W 02:59:10 21° SW 03:00:30 19° SSW
ASTRO E2 3.7 02:56:01 10° W 02:58:52 35° SW 02:58:52 35° SW
STARLINK-1112 3.7 02:56:16 10° NW 03:00:22 63° NE 03:00:26 63° NE
Abrixas rocket 3.7 02:58:24 10° NW 03:00:09 33° NW 03:00:09 33° NW
Cosmos 1242 Rocket 4.2 03:04:40 26° NE 03:04:40 26° NE 03:06:34 10° NNE
STARLINK-1390 4.2 03:04:34 45° NE 03:04:34 45° NE 03:07:24 10° NE
Cosmos 1943 Rocket 3.4 02:58:22 10° SW 03:03:31 40° WNW 03:08:45 10° N
Cosmos 2026 Rocket 4.0 03:02:16 46° SSE 03:04:00 63° E 03:10:16 10° NNE
SPOT 1/Viking Rocket 3.5 03:03:35 56° ESE 03:04:19 63° ENE 03:09:24 10° N
STARLINK-1128 3.7 03:01:12 10° NW 03:05:13 70° NNE 03:05:13 70° NNE
STARLINK-1365 3.6 03:07:35 73° NW 03:07:35 73° NW 03:11:37 10° NE
STARLINK-1113 3.7 03:06:11 10° NW 03:10:01 73° N 03:10:01 73° N
STARLINK-1119 3.8 03:11:09 10° NW 03:14:47 68° NW 03:14:47 68° NW
CENTAUR R/B 3.8 03:08:13 10° NNW 03:16:07 45° NE 03:19:27 33° E
Cosmos 1766 3.6 03:13:41 10° N 03:17:08 63° NNW 03:17:08 63° NNW
STARLINK-1114 4.0 03:16:08 10° NW 03:19:34 59° WNW 03:19:34 59° WNW
Cosmos 1992 Rocket 3.8 03:21:20 80° SSE 03:21:33 84° ESE 03:26:47 10° NNE
STARLINK-1338 4.4 03:23:32 46° NNW 03:23:32 46° NNW 03:26:49 10° NNE
ATLAS 3B R/B 4.4 03:18:11 10° N 03:23:05 20° NE 03:25:46 16° ENE
Cosmos 1656 Rocket 3.6 03:22:48 52° SSW 03:24:14 84° WNW 03:29:51 10° NNE
STARLINK-1130 (DARKSAT) 4.3 03:21:06 10° NW 03:24:21 51° WNW 03:24:21 51° WNW
Meteor 1-21 4.0 03:25:54 72° S 03:26:30 86° E 03:32:07 10° N
Cosmos 2369 Rocket 3.9 03:31:17 10° SW 03:36:13 30° WNW 03:41:10 10° N
NOSS 3-2 (C) 4.2 03:29:00 10° NNW 03:36:52 65° ENE 03:39:06 50° ESE
SL-8 R/B 4.0 03:33:05 10° NW 03:37:06 61° WNW 03:37:06 61° WNW
NOSS 3-4 (A) 4.2 03:32:45 10° SW 03:38:24 47° NW 03:44:17 10° NNE
NOSS 3-4 (C) 4.2 03:32:50 10° SW 03:38:30 48° NW 03:44:24 10° NNE
ERS-1 Rocket 3.0 03:39:13 78° WNW 03:39:13 78° WNW 03:44:01 10° NNW
Cosmos 1655 Rocket 4.3 03:40:04 49° ENE 03:40:04 49° ENE 03:45:39 10° NNE
ATLAS 3B CENTAUR R/B 3.2 03:25:00 10° W 03:40:40 68° SSW 03:42:25 56° SE
Cosmos 1025 Rocket 4.4 03:45:13 33° NNE 03:45:13 33° NNE 03:47:41 10° N
BREEZE-M DEB (TANK) 3.7 03:35:55 10° NW 03:44:11 50° NNE 03:44:45 48° ENE
Cosmos 1867 4.2 03:52:59 10° NNW 03:57:37 47° NE 03:57:37 47° NE
Cosmos 968 Rocket 3.9 03:53:42 10° NNW 03:57:51 59° NNW 03:57:51 59° NNW
ATLAS 5 CENTAUR R/B 3.5 03:50:16 10° SW 03:59:49 46° WNW 04:03:03 10° NNE
ATLAS 2AS CENTAUR R/B 4.3 03:59:08 10° WSW 04:06:19 37° NW 04:13:37 10° NNE
COSMOS 2455 3.9 04:13:28 29° WSW 04:15:48 40° WNW 04:21:27 10° N
Thor Agena Rocket 4.4 04:19:34 10° NNE 04:23:12 45° NNE 04:23:12 45° NNE
SPOT 5 4.5 04:25:37 31° W 04:25:37 31° W 04:29:42 10° NW
Terra 3.5 04:33:54 27° WNW 04:33:54 27° WNW 04:36:42 10° NNW
SeaSat 1 3.9 04:47:24 10° NNE 04:50:08 33° NNE 04:50:08 33° NNE
Cosmos 2297 Rocket 4.2 04:49:50 10° NNE 04:53:23 18° NE 04:53:23 18° NE
Cosmos 2315 Rocket 4.5 04:53:13 10° N 04:58:03 56° N 04:58:03 56° N
CENTAUR R/B 3.8 04:59:02 10° NW 05:06:37 42° WSW 05:06:37 42° WSW
Milstar 3 Cent rocket 4.4 05:01:46 10° W 05:12:46 78° S 05:37:52 10° E
ATLAS 3B R/B 3.1 05:07:27 10° NNW 05:13:00 59° NW 05:13:00 59° NW
Cosmos 2227 Rocket 3.7 05:26:29 10° N 05:30:28 30° NE 05:30:28 30° NE
FALCON 9 R/B 3.6 05:53:12 42° E 05:53:12 42° E 06:02:17 10° E
Lacrosse 4 Rocket 4.3 05:50:55 10° NNE 05:52:03 14° NNE 05:52:03 14° NNE
CZ-4C R/B 3.6 06:00:11 32° N 06:00:11 32° N 06:03:38 10° NNE
BREEZE M DEB (TANK) 4.4 06:06:26 67° ESE 06:06:26 67° ESE 06:27:14 10° NE
Cosmos 1980 Rocket 3.5 06:12:34 35° NE 06:12:34 35° NE 06:15:53 10° NNE
SJ 16-02 3.8 06:11:31 10° NNW 06:12:52 19° N 06:12:52 19° N
Cosmos 1709 Rocket 4.5 06:38:36 55° NNW 06:38:36 55° NNW 06:43:22 10° N
Cosmos 2297 Rocket 3.7 06:32:30 10° NNW 06:35:10 27° NW 06:35:10 27° NW
USA 215 3.9 06:35:30 34° E 06:38:02 50° NE 06:44:19 10° NNW
SL-16 R/B 4.0 06:39:30 24° E 06:41:10 28° ENE 06:46:15 10° NNE
Cosmos 2322 Rocket 3.8 06:49:46 25° E 06:49:46 25° E 06:53:20 10° NE
Cosmos 1697 Rocket 4.3 06:57:30 25° NW 06:57:30 25° NW 07:01:26 10° N
Cosmos 2285 Rocket 4.2 06:58:22 10° NNW 07:03:42 65° NNW 07:03:42 65° NNW
Resurs 1-4 Rocket 2.6 07:08:44 10° NNE 07:13:02 56° NE 07:13:02 56° NE
Cosmos 2227 Rocket 4.2 07:10:45 10° NW 07:12:15 17° WNW 07:12:15 17° WNW
SL-16 R/B 2.4 07:24:07 66° ENE 07:24:07 66° ENE 07:29:08 10° NNE
Cosmos 2074 Rocket 3.9 07:24:26 81° NW 07:24:26 81° NW 07:30:29 10° N
Cosmos 2298 Rocket 4.3 07:30:42 10° NNW 07:35:12 64° N 07:35:12 64° N
BREEZE-M DEB (TANK) 3.6 07:41:43 48° NW 07:42:03 49° NNW 07:51:50 10° NE
CZ-2D R/B 2.4 07:37:22 10° N 07:41:49 56° NW 07:41:49 56° NW
Cosmos 2360 Rocket 2.8 07:46:14 44° ESE 07:46:44 45° ESE 07:52:04 10° NE
Cosmos 2184 Rocket 4.2 07:48:41 53° WNW 07:48:41 53° WNW 07:54:33 10° N
Cosmos 2327 Rocket 4.4 07:50:48 70° WSW 07:51:20 75° W 07:57:43 10° N
Cosmos 1076 Rocket 4.0 07:55:10 58° NE 07:55:10 58° NE 07:58:52 10° NNE
Cosmos 1980 Rocket 4.2 07:54:20 15° WNW 07:54:44 15° WNW 07:58:00 10° NNW
Cosmos 1892 3.9 07:56:58 40° NNE 07:56:58 40° NNE 07:59:29 10° N
Cosmos 1610 Rocket 4.3 07:57:00 67° WSW 07:57:26 70° W 08:03:36 10° N
Cosmos 2333 Rocket 4.3 07:55:20 14° SE 07:57:52 18° E 08:01:36 10° ENE
STARLINK-1008 4.5 08:01:34 46° ENE 08:01:34 46° ENE 08:04:38 10° NE
CRYOSAT 2 4.5 07:55:43 10° N 08:00:05 64° NW 08:00:05 64° NW
STARLINK-24 4.4 08:01:58 47° NNE 08:01:58 47° NNE 08:04:55 10° NE
IRIDIUM 103 4.3 08:00:37 71° SE 08:01:04 76° E 08:06:17 10° N
CBERS-1 3.8 07:57:18 10° N 08:02:27 83° WNW 08:02:33 83° WSW
Cosmos 1869 4.3 07:59:43 10° N 08:02:21 42° N 08:02:21 42° N
Cosmos 2219 Rocket 4.2 08:02:25 14° SE 08:05:09 20° E 08:09:02 10° NE
STARLINK-1014 4.2 08:06:23 52° ENE 08:06:23 52° ENE 08:09:37 10° NE
Timation 1 Rocket 4.4 08:00:17 10° NNW 08:05:50 57° W 08:05:50 57° W
Lacrosse 5 rocket 3.7 08:09:53 14° ESE 08:09:53 14° ESE 08:12:02 10° E
STARLINK-1025 4.0 08:11:08 62° ENE 08:11:08 62° ENE 08:14:38 10° NE
STARLINK-1017 3.8 08:15:54 70° NE 08:15:54 70° NE 08:19:35 10° NE
Cosmos 2263 Rocket 2.0 08:13:34 10° NNW 08:19:07 69° WSW 08:19:55 60° SSW
IRIDIUM 106 4.2 08:18:52 65° SW 08:19:21 70° W 08:24:33 10° N
Cosmos 962 Rocket 4.3 08:18:04 52° SSW 08:19:40 81° W 08:25:52 10° N
STARLINK-1023 3.7 08:20:41 74° N 08:20:41 74° N 08:24:33 10° NE
USA 215 4.0 08:22:46 32° W 08:22:46 32° W 08:27:00 10° WNW
Cosmos 2154 Rocket 4.4 08:21:54 42° W 08:22:44 44° W 08:28:39 10° N
ADEOS II 2.1 08:19:12 10° N 08:24:25 67° WNW 08:25:17 56° SW
SL-16 R/B 3.1 08:24:35 37° W 08:24:35 37° W 08:30:11 10° NNW
STARLINK-1007 3.6 08:25:30 70° NW 08:25:30 70° NW 08:29:33 10° NE
STARLINK-81 4.2 08:26:24 41° NNW 08:26:24 41° NNW 08:29:26 10° NNE
STARLINK-54 4.4 08:28:09 36° NNW 08:28:09 36° NNW 08:31:13 10° NNE
STARLINK-77 4.2 08:29:34 39° NNW 08:29:34 39° NNW 08:32:42 10° NNE
IDEFIX/ARIANE 42P 3.7 08:24:30 10° NNE 08:29:22 38° E 08:32:35 19° SSE
STARLINK-1048 3.7 08:30:16 62° NW 08:30:23 62° NW 08:34:30 10° NE
Cosmos 1408 3.0 08:31:51 52° NW 08:31:51 52° NW 08:34:55 10° N
IRS-1D 4.1 08:27:14 10° N 08:32:06 41° WNW 08:32:45 39° W
Cosmos 2221 3.5 08:28:07 10° NNW 08:31:15 34° WNW 08:31:15 34° WNW
Cosmos 1825 2.1 08:32:28 80° ESE 08:32:31 80° E 08:36:17 10° N
Cosmos 2322 Rocket 3.1 08:31:35 30° W 08:32:32 32° WNW 08:37:33 10° N
STARLINK-79 4.3 08:34:16 35° NW 08:34:16 35° NW 08:37:33 10° NNE
STARLINK-1049 3.8 08:35:03 53° WNW 08:35:23 55° NW 08:39:28 10° NE
STARLINK-78 4.4 08:35:49 34° NW 08:35:49 34° NW 08:39:06 10° NNE
IRS-1C 4.2 08:31:36 10° N 08:36:52 63° WNW 08:38:18 45° SW
STARLINK-49 4.5 08:38:57 31° NW 08:39:03 31° NW 08:42:19 10° NNE
ARIANE 5 R/B 2.3 08:35:06 10° N 08:40:06 80° WNW 08:41:40 45° SSW
STARLINK-1051 4.0 08:39:48 46° WNW 08:40:20 49° NW 08:44:22 10° NNE
SL-24 DEB 4.2 08:38:16 10° N 08:42:53 80° E 08:44:43 36° S
STARLINK-1028 4.4 08:49:23 34° WNW 08:50:20 40° NW 08:54:15 10° NNE
Resurs 1-4 Rocket 4.2 08:51:22 10° NW 08:53:11 12° WNW 08:54:06 11° WNW
Cosmos 2366 rocket 3.9 08:50:31 26° S 08:54:15 83° W 09:00:34 10° N
Delta 2 Rocket 4.2 08:52:38 34° SW 08:54:47 47° S 09:00:29 10° E
CZ-3A R/B 4.0 08:54:52 13° SSE 08:58:00 19° SE 09:06:02 10° E
CZ-4C R/B 4.1 08:57:13 10° SSE 09:00:42 46° ENE 09:04:12 10° N
Cosmos 2237 Rocket 4.4 08:56:45 10° SE 09:00:43 20° E 09:04:41 10° NE
GEOS 3 Rocket 3.6 08:55:48 10° SSE 09:00:49 58° WSW 09:05:59 10° NW
BREEZE-M TANK 3.1 09:00:19 29° S 09:01:29 38° SE 09:04:18 10° ENE
MSX 4.4 08:55:57 10° NNE 09:01:35 56° E 09:06:57 11° S
STARLINK-1027 4.4 09:01:04 28° S 09:02:39 42° SE 09:06:34 10° ENE
COBE Rocket 4.0 09:02:52 21° S 09:06:10 62° W 09:11:15 10° NNW
STARLINK-1060 4.2 09:05:49 28° S 09:07:35 48° SE 09:11:34 10° NE
SL-16 R/B 4.2 09:05:59 11° W 09:08:07 13° NW 09:10:45 10° NNW
Spot 4 Rocket 4.2 09:05:09 10° N 09:10:11 56° WNW 09:12:58 25° SW
COSMOS 2428 2.8 09:06:24 20° S 09:10:25 75° ESE 09:16:06 10° NNE
STARLINK-1030 4.0 09:10:36 28° SSW 09:12:33 54° SE 09:16:36 10° NE
Cosmos 1818 3.9 09:10:05 19° SSW 09:13:51 64° ESE 09:19:14 10° NE
Cosmos 1844 Rocket 3.1 09:08:28 10° NNW 09:14:02 66° ENE 09:19:32 10° SSE
Cosmos 1408 Rocket 3.4 09:11:56 20° S 09:14:53 89° ESE 09:19:13 10° N
USA 229 DEB 4.2 09:09:45 10° NW 09:16:45 44° WSW 09:23:56 10° S
USA 229 4.2 09:09:51 10° NW 09:16:52 45° WSW 09:24:04 10° S
STARLINK-1020 3.9 09:15:24 26° SSW 09:17:31 62° SE 09:21:37 10° NE
Meteor 1-28 Rocket 3.5 09:16:04 28° SSW 09:17:38 45° W 09:21:15 10° NNW
Cosmos 1538 Rocket 4.5 09:15:42 25° SW 09:18:32 47° WNW 09:23:43 10° N
BREEZE-M R/B 4.2 09:17:37 18° SSW 09:19:57 30° SSE 09:21:57 10° E
STARLINK-1052 3.7 09:20:10 25° SSW 09:22:28 70° SE 09:26:36 10° NE
STARLINK-60 2.7 09:21:15 10° NW 09:24:27 73° SW 09:27:37 10° SE
Cosmos 2098 4.2 09:22:45 23° SSW 09:24:32 77° W 09:28:11 10° N
CZ-2D R/B 4.4 09:21:04 10° N 09:24:56 33° WNW 09:27:02 21° WSW
SL-4 R/B 2.2 09:21:22 10° NW 09:26:06 83° SW 09:30:30 10° SE
NOSS 3-1 (A) 4.3 09:18:15 10° NW 09:26:11 58° WSW 09:34:52 10° S
Cosmos 1727 Rocket 4.0 09:20:23 10° N 09:26:35 88° E 09:32:45 10° S
SL-08 R/B 4.1 09:25:19 22° SW 09:27:11 28° W 09:31:10 10° NW
Cosmos 2360 Rocket 3.7 09:28:00 14° W 09:30:54 20° WNW 09:35:00 10° NNW
ERS-2 2.7 09:29:06 20° SSW 09:31:08 36° W 09:34:32 10° NNW
H-2A R/B 2.2 09:26:52 10° S 09:31:09 56° W 09:35:32 10° NNW
STARLINK-1033 3.6 09:29:45 21° SW 09:32:26 88° ESE 09:36:35 10° NE
STARLINK-1444 2.0 09:30:27 10° NW 09:32:49 80° SW 09:35:18 10° SE
STARLINK-1452 2.0 09:31:05 10° NW 09:33:26 78° SW 09:35:56 10° SE
Cosmos 1606 2.7 09:30:02 10° NNW 09:33:45 61° W 09:37:29 10° S
STARLINK-1450 2.0 09:32:01 10° NW 09:34:19 74° SW 09:36:46 10° SE
STARLINK-1392 2.0 09:32:12 10° NW 09:34:31 74° SW 09:36:57 10° SE
STARLINK-1415 2.0 09:32:13 10° NW 09:34:31 74° SW 09:36:58 10° SE
STARLINK-1399 2.0 09:32:13 10° NW 09:34:32 74° SW 09:36:58 10° SE
STARLINK-1394 2.0 09:32:14 10° NW 09:34:32 74° SW 09:36:59 10° SE
STARLINK-1395 2.0 09:32:15 10° NW 09:34:33 74° SW 09:37:00 10° SE
STARLINK-1393 2.0 09:32:15 10° NW 09:34:33 74° SW 09:37:00 10° SE
STARLINK-1401 2.0 09:32:15 10° NW 09:34:33 74° SW 09:37:00 10° SE
STARLINK-1396 2.0 09:32:15 10° NW 09:34:33 74° SW 09:37:01 10° SE
STARLINK-1397 2.0 09:32:15 10° NW 09:34:33 74° SW 09:37:01 10° SE
STARLINK-1453 2.0 09:32:16 10° NW 09:34:34 73° SW 09:37:01 10° SE
STARLINK-1404 2.0 09:32:17 10° NW 09:34:35 73° SW 09:37:02 10° SE
STARLINK-1417 2.0 09:32:18 10° NW 09:34:36 73° SW 09:37:03 10° SE
STARLINK-1402 2.0 09:32:18 10° NW 09:34:36 73° SW 09:37:03 10° SE
STARLINK-1413 2.0 09:32:19 10° NW 09:34:37 73° SW 09:37:04 10° SE
STARLINK-1406 2.0 09:32:20 10° NW 09:34:38 73° SW 09:37:05 10° SE
STARLINK-1440 2.0 09:32:22 10° NW 09:34:39 73° SW 09:37:07 10° SE
STARLINK-1414 2.0 09:32:21 10° NW 09:34:40 74° SW 09:37:10 10° SE
STARLINK-1445 2.0 09:32:22 10° NW 09:34:40 73° SW 09:37:08 10° SE
STARLINK-1443 2.0 09:32:23 10° NW 09:34:42 73° SW 09:37:08 10° SE
STARLINK-1454 2.0 09:32:23 10° NW 09:34:42 73° SW 09:37:09 10° SE
STARLINK-1416 2.0 09:32:23 10° NW 09:34:42 74° SW 09:37:11 10° SE
STARLINK-1457 2.0 09:32:24 10° NW 09:34:42 73° SW 09:37:10 10° SE
STARLINK-1408 2.0 09:32:22 10° NW 09:34:43 74° SW 09:37:12 10° SE
STARLINK-1456 2.0 09:32:25 10° NW 09:34:43 73° SW 09:37:10 10° SE
STARLINK-1451 2.0 09:32:25 10° NW 09:34:44 73° SW 09:37:10 10° SE
STARLINK-1442 2.0 09:32:26 10° NW 09:34:45 73° SW 09:37:12 10° SE
STARLINK-1436 (VISORSAT) 2.0 09:32:25 10° NW 09:34:46 73° SW 09:37:15 10° SE
STARLINK-1419 2.0 09:32:26 10° NW 09:34:47 73° SW 09:37:16 10° SE
STARLINK-1405 2.0 09:32:29 10° NW 09:34:48 73° SW 09:37:15 10° SE
STARLINK-1421 2.0 09:32:29 10° NW 09:34:48 73° SW 09:37:15 10° SE
STARLINK-1398 2.0 09:32:27 10° NW 09:34:48 73° SW 09:37:18 10° SE
STARLINK-1410 2.0 09:32:30 10° NW 09:34:49 73° SW 09:37:15 10° SE
STARLINK-1400 2.0 09:32:30 10° NW 09:34:49 73° SW 09:37:16 10° SE
STARLINK-1407 2.0 09:32:31 10° NW 09:34:49 73° SW 09:37:16 10° SE
STARLINK-1439 2.0 09:32:31 10° NW 09:34:50 73° SW 09:37:17 10° SE
STARLINK-1409 2.0 09:32:32 10° NW 09:34:50 73° SW 09:37:17 10° SE
STARLINK-1351 2.0 09:32:33 10° NW 09:34:51 73° SW 09:37:18 10° SE
STARLINK-1370 2.0 09:32:33 10° NW 09:34:51 73° SW 09:37:18 10° SE
STARLINK-1422 2.0 09:32:31 10° NW 09:34:51 73° SW 09:37:21 10° SE
STARLINK-1418 2.0 09:32:33 10° NW 09:34:52 73° SW 09:37:19 10° SE
STARLINK-1420 2.0 09:32:31 10° NW 09:34:52 73° SW 09:37:21 10° SE
STARLINK-1434 2.0 09:32:34 10° NW 09:34:52 73° SW 09:37:19 10° SE
STARLINK-1403 2.0 09:32:34 10° NW 09:34:53 72° SW 09:37:20 10° SE
STARLINK-1460 2.0 09:32:33 10° NW 09:34:54 73° SW 09:37:24 10° SE
STARLINK-1433 2.0 09:32:36 10° NW 09:34:54 72° SW 09:37:21 10° SE
STARLINK-1411 2.0 09:32:38 10° NW 09:34:55 72° SW 09:37:23 10° SE
STARLINK-1438 2.0 09:32:38 10° NW 09:34:56 72° SW 09:37:23 10° SE
STARLINK-1458 2.0 09:32:37 10° NW 09:34:57 73° SW 09:37:27 10° SE
STARLINK-1423 2.0 09:32:40 10° NW 09:35:01 73° SW 09:37:29 10° SE
STARLINK-1446 2.0 09:32:40 10° NW 09:35:01 73° SW 09:37:31 10° SE
STARLINK-1437 2.0 09:32:42 10° NW 09:35:02 73° SW 09:37:32 10° SE
STARLINK-1447 2.0 09:32:44 10° NW 09:35:05 73° SW 09:37:35 10° SE
STARLINK-1455 2.0 09:32:45 10° NW 09:35:06 73° SW 09:37:35 10° SE
STARLINK-1441 2.0 09:32:45 10° NW 09:35:06 73° SW 09:37:36 10° SE
STARLINK-1448 2.0 09:32:49 10° NW 09:35:10 72° SW 09:37:39 10° SE
STARLINK-1449 2.0 09:32:50 10° NW 09:35:11 72° SW 09:37:41 10° SE
STARLINK-1412 2.0 09:32:59 10° NW 09:35:20 72° SW 09:37:50 10° SE
Cosmos 1151 Rocket 3.0 09:31:43 10° NNW 09:36:05 67° W 09:40:24 10° S
deb Chang Zheng 4 3.5 09:32:29 10° NNE 09:36:47 86° ESE 09:41:01 10° SSW
STARLINK-1031 3.6 09:34:32 19° SW 09:37:24 82° NW 09:41:33 10° NE
CZ-2C R/B 3.6 09:34:44 10° N 09:38:10 33° WNW 09:40:32 17° SW
SWARM A 4.1 09:35:32 10° N 09:38:52 85° W 09:42:10 10° S
SAR-Lupe-4 4.2 09:36:57 10° SSE 09:40:28 60° ENE 09:44:00 10° N
Cosmos 2333 Rocket 2.6 09:37:22 16° SW 09:41:39 46° WNW 09:47:06 10° N
STARLINK-1024 3.6 09:39:18 17° SW 09:42:22 73° NW 09:46:31 10° NE
Cosmos 1515 Rocket 3.6 09:40:25 10° N 09:44:47 81° E 09:49:06 10° S
STARLINK-1035 3.7 09:44:06 16° SW 09:47:21 65° NW 09:51:28 10° NE
Cosmos 2219 Rocket 2.7 09:44:09 14° SW 09:48:41 43° WNW 09:53:59 10° N
Lacrosse 5 rocket 1.8 09:45:32 15° WSW 09:48:42 45° NW 09:52:27 10° NNE
Cosmos 2112 Rocket 4.0 09:46:28 10° SSW 09:51:42 90° E 09:57:01 10° NNE
STARLINK-1032 3.9 09:48:52 14° WSW 09:52:19 58° NW 09:56:25 10° NE
BREEZE-M DEB (TANK) 3.7 09:47:52 11° WSW 09:52:51 40° NW 09:55:38 10° NE
Meteor 1-26 Rocket 4.4 09:48:11 10° N 09:54:05 82° W 10:00:05 10° S
STARLINK-1037 4.0 09:52:08 13° WSW 09:55:42 52° NW 09:59:45 10° NE
SAR-Lupe-1 4.0 09:52:34 10° SSE 09:56:06 87° WSW 09:59:40 10° NNW
STARLINK-29 2.8 09:53:36 10° NW 09:56:46 80° SW 09:59:55 10° SE
STARLINK-1011 4.0 09:53:38 12° WSW 09:57:18 51° NW 10:01:21 10° NNE
Cosmos 2344 3.7 09:50:02 10° SW 09:57:45 67° WNW 10:05:21 10° NNE
Cosmos 1633 2.8 09:54:38 10° SSW 09:58:06 49° W 10:01:37 10° N
ATLAS 5 CENTAUR R/B 1.6 09:57:35 10° SW 10:01:29 58° WNW 10:05:45 10° NNE
STARLINK-1036 4.2 09:58:26 11° WSW 10:02:18 46° NW 10:06:18 10° NNE
CZ-2C R/B 2.5 09:57:35 10° N 10:02:46 75° WNW 10:07:52 10° SSW
USA 32 4.2 09:58:27 10° SSW 10:03:35 58° W 10:08:45 10° N
Cosmos 1743 Rocket 3.9 10:00:33 10° SSW 10:04:47 46° W 10:09:00 10° N
STARLINK-1044 4.4 10:03:22 10° WSW 10:07:18 41° NW 10:11:14 10° NNE
CZ-4B R/B 1.1 10:05:08 10° S 10:08:09 74° WSW 10:11:15 10° NNW
IDEFIX/ARIANE 42P 4.0 10:04:47 10° NNW 10:08:38 21° WNW 10:12:27 10° WSW
Cosmos 1346 Rocket 3.0 10:06:51 10° SSW 10:10:45 52° W 10:14:39 10° N
Cosmos 1844 4.1 10:09:54 10° NW 10:15:20 43° WSW 10:20:43 10° S
